Regional Weather Roundup
Issued by NWS

Home | Current Version | Previous Version | Text Only | Print | Product List | Glossary On
Versions: 1 2 3 4 5 6 7 8 9 10 11 12 13 14 15 16 17 18 19 20 21 22 23 24 25 26 27 28 29 30 31 32 33 34 35 36 37 38 39 40 41 42 43 44 45 46 47 48 49 50
000
ASUS43 KDTX 021210
RWRMI
MICHIGAN HOURLY REGIONAL WEATHER ROUNDUP
NATIONAL WEATHER SERVICE DETROIT/PONTIAC MI
800 AM EDT THU OCT 02 2014

NOTE: "FAIR" INDICATES FEW OR NO CLOUDS BELOW 12,000 FEET WITH NO
SIGNIFICANT WEATHER AND/OR OBSTRUCTION TO VISIBILITY.

MIZ047>049-052>055-059>063-066>070-074>076-081>083-021300-
SOUTHEAST LOWER MICHIGAN

CITY           SKY/WX    TMP DP  RH WIND       PRES   REMARKS
ADRIAN         CLOUDY    53  51  93 SE5       30.04S FOG
6HR MIN TEMP:  51; 6HR MAX TEMP:  55;

ALMA           CLOUDY    57  56  96 CALM      29.99S FOG
ANN ARBOR      PTCLDY    52  50  93 S5        30.04S FOG
BAD AXE        FOG       57  57 100 S9        30.05R VSB 1
6HR MIN TEMP:  53; 6HR MAX TEMP:  57;

CARO           CLOUDY    58  57  96 SE7       30.02S FOG
DETROIT CITY   FOG       57  55  93 CALM      30.05S VSB 1/4
DETROIT        MOCLDY    54  54 100 CALM      30.05S FOG
6HR MIN TEMP:  53; 6HR MAX TEMP:  58;

FLINT          PTCLDY    60  56  86 SE8       30.02S FOG
6HR MIN TEMP:  57; 6HR MAX TEMP:  61;

GROSSE ILE     CLEAR     61  57  88 S7        30.04S
HILLSDALE      CLOUDY    56  54  93 SE6       30.01S FOG
HOWELL         MOCLDY    56  55  98 S9        30.03R FOG
6HR MIN TEMP:  55; 6HR MAX TEMP:  57;


CITY           SKY/WX    TMP DP  RH WIND       PRES   REMARKS
JACKSON        MOCLDY    56  52  86 SE8       30.01F
6HR MIN TEMP:  52; 6HR MAX TEMP:  56;

LAMBERTVILLE   FOG       50  46  87 CALM      30.05S VSB 1
LANSING        CLOUDY    57  52  83 SE9       30.00R
6HR MIN TEMP:  54; 6HR MAX TEMP:  57;

LAPEER         CLOUDY    58  57  96 S7        30.04R FOG
MASON          CLOUDY    55  52  92 SE8       30.01R FOG
MONROE         FOG       48  48 100 CALM      30.03S VSB 3/4
MT. CLEMENS    FOG       59  59 100 SE6       30.03R VSB 1/8
6HR MIN TEMP:  58; 6HR MAX TEMP:  61;

PONTIAC        FOG       58  57  97 S9        30.03S VSB 3/4
6HR MIN TEMP:  58; 6HR MAX TEMP:  60;

PORT HOPE        N/A     59  57  93 VRB5      30.03R
6HR MIN TEMP:  56; 6HR MAX TEMP:  59;

PORT HURON     FOG       57  57 100 CALM      30.07R VSB 1/4
TRI CITIES     CLOUDY    58  55  90 SE8       30.01F FOG
6HR MIN TEMP:  52; 6HR MAX TEMP:  59;

TROY           FOG       59  57  94 CALM      30.06S VSB 1
SAGINAW HB       N/A     55  55 100 SE5       30.00F FOG
$$
MIZ043>046-050>051-056>058-064>065-071>073-077>080-021300-
SOUTHWEST LOWER MICHIGAN

CITY           SKY/WX    TMP DP  RH WIND       PRES   REMARKS
BATTLE CREEK   LGT RAIN  59  51  75 SE8       29.99R
6HR MIN TEMP:  56; 6HR MAX TEMP:  59; 6HR PCP: TRACE;

BENTON HARBOR  CLOUDY    58  54  86 SE9       29.91F
6HR MIN TEMP:  57; 6HR MAX TEMP:  61; 6HR PCP:  0.12;

BIG RAPIDS     CLOUDY    56  56 100 SE9       29.96R FOG
6HR MIN TEMP:  47; 6HR MAX TEMP:  56;

COLDWATER      CLOUDY    59  52  77 SE8       29.98F
6HR MIN TEMP:  56; 6HR MAX TEMP:  59;

FREMONT        CLOUDY    56  54  91 SE9       29.92F
GRAND RAPIDS   CLOUDY    59  54  83 SE10      29.95F
6HR MIN TEMP:  53; 6HR MAX TEMP:  59; 6HR PCP: TRACE;

IONIA          CLOUDY    57  55  91 S6        29.98S
KALAMAZOO      CLOUDY    57  52  82 SE5       29.97F
LUDINGTON      CLOUDY    57  55  95 SE5       29.92R
6HR MIN TEMP:  56; 6HR MAX TEMP:  59; 6HR PCP:  0.23;

MARSHALL       CLOUDY    57  51  79 SE5       29.99R
MOUNT PLEASANT CLOUDY    56  56  98 SE3       29.98S FOG
6HR MIN TEMP:  43; 6HR MAX TEMP:  56;

MUSKEGON       CLOUDY    59  54  83 SE12      29.91F
6HR MIN TEMP:  58; 6HR MAX TEMP:  60; 6HR PCP:  0.08;

SOUTH HAVEN    CLOUDY    59  56  92 SE8       29.92F
$$
MIZ016>042-021300-
NORTHERN LOWER MICHIGAN

CITY           SKY/WX    TMP DP  RH WIND       PRES   REMARKS
ALPENA         CLOUDY    56  56 100 SE5       30.01R FOG
6HR MIN TEMP:  50; 6HR MAX TEMP:  56;

BEAVER ISLAND  HVY RAIN  56  55  96 SE6       29.95R
6HR MIN TEMP:  55; 6HR MAX TEMP:  57;

BELLAIRE       CLOUDY    59  53  78 S6        29.95R
6HR MIN TEMP:  55; 6HR MAX TEMP:  60;

CADILLAC       CLOUDY    54  52  94 SE6       29.95S
CHARLEVOIX     LGT RAIN  56  56  97 SE6       29.97S
6HR MIN TEMP:  53; 6HR MAX TEMP:  57;

FRANKFORT      RAIN      57  54  87 SE5       29.91R
GAYLORD        CLOUDY    54  52  93 S6        29.98R
6HR MIN TEMP:  53; 6HR MAX TEMP:  54;

GRAYLING       CLOUDY    55  55  97 SE7       30.00R
6HR MIN TEMP:  50; 6HR MAX TEMP:  56;

HARBOR SPRINGS LGT RAIN  56  53  91 NE6       29.96S
HOUGHTON LAKE  FOG       54  53  97 SE9       29.99S VSB 1
6HR MIN TEMP:  48; 6HR MAX TEMP:  54;

OSCODA         FOG       57  57 100 S8        30.01S VSB 1
PELLSTON       LGT RAIN  56  54  93 CALM      29.97S
6HR MIN TEMP:  53; 6HR MAX TEMP:  56; 6HR PCP: TRACE;

ROGERS CITY    MOCLDY    55  55 100 SE6       30.02R FOG
TRAVERSE CITY  CLOUDY    59  51  75 CALM      29.92S
6HR MIN TEMP:  56; 6HR MAX TEMP:  59; 6HR PCP: TRACE;

$$
MIZ007>008-015-021300-
EASTERN UPPER MICHIGAN

CITY           SKY/WX    TMP DP  RH WIND       PRES   REMARKS
MACKINAC ISLAN LGT RAIN  56  56  98 SE3       29.98R
6HR MIN TEMP:  56; 6HR MAX TEMP:  57;

NEWBERRY       LGT RAIN  54  54  99 SE5       29.94S
S. S. MARIE    RAIN      56  54  93 SE7       29.97F FOG
6HR MIN TEMP:  56; 6HR MAX TEMP:  57; 6HR PCP:  0.13;

MUNISING         N/A     58  54  86 S7        29.89F
6HR MIN TEMP:  57; 6HR MAX TEMP:  58;

$$
MIZ004>006-011>014-085-021300-
CENTRAL UPPER MICHIGAN

CITY           SKY/WX    TMP DP  RH WIND       PRES   REMARKS
MANISTIQUE     LGT RAIN  56  55  99 SE6       29.91F
SAWYER-GWINN   CLOUDY    54  52  94 S8        29.89S FOG
$$
MIZ001>003-009>011-084-021300-
WESTERN UPPER MICHIGAN

CITY           SKY/WX    TMP DP  RH WIND       PRES   REMARKS
IRON MOUNTAIN  FOG       53  52  96 SE3       29.87S VSB 1/4
6HR MIN TEMP:  53; 6HR MAX TEMP:  53;

HOUGHTON       CLOUDY    55  51  86 S6        29.85S
6HR MIN TEMP:  55; 6HR MAX TEMP:  55;

COPPER HARBOR    N/A     55  52  89 SW6       29.86R
6HR MIN TEMP:  55; 6HR MAX TEMP:  56;

$$

ABBREVIATIONS USED IN REMARKS
   TC - TEMPERATURE IN CELSIUS
  WCI - WIND CHILL INDEX
   HX - HEAT INDEX
  VSB - VISIBILITY



USA.gov is the U.S. government's official web portal to all federal, state and local government web resources and services.